Regional Weather Roundup
Issued by NWS Northern Indiana

Home | Current Version | Previous Version | Text Only | Print | Product List | Glossary Off
Versions: 1 2 3 4 5 6 7 8 9 10 11 12 13 14 15 16 17 18 19 20 21 22 23 24 25 26 27 28 29 30 31 32 33 34 35 36 37 38 39 40 41 42 43 44 45 46 47 48 49 50

000
ASUS43 KIWX 260810
RWRIWX

KIWX WEATHER ROUNDUP
NATIONAL WEATHER SERVICE NORTHERN INDIANA
400 AM EDT THU APR 26 2018

NOTE: "FAIR" INDICATES FEW OR NO CLOUDS BELOW 12,000 FEET WITH NO
SIGNIFICANT WEATHER AND/OR OBSTRUCTIONS TO VISIBILITY.

* THESE STATIONS ARE NOT UNDER NWS QUALITY CONTROL. THEY ALSO MAY NOT
  REPORT WEATHER SUCH AS PRECIPITATION OR FOG.

INZ001>027-260900-
NORTHERN INDIANA

CITY           SKY/WX    TMP DP  RH WIND       PRES   REMARKS
GARY*          FAIR      32  32 100 CALM      29.97S
VALPARAISO     FAIR      37  31  78 N6        29.95F
MICHIGAN CITY* FAIR      32  32 100 CALM      29.96F
LAPORTE*       FAIR      34  32  92 N7        29.95S WCI  28
KNOX*          FAIR      30  28  93 CALM      29.95S
SOUTH BEND     FAIR      33  28  81 N5        29.95F WCI  29
GOSHEN         FAIR      35  30  82 NW3       29.93F
MONTICELLO*    FAIR      29  26  88 CALM      29.95S
LOGANSPORT*    FAIR      32  28  86 CALM      29.95F
ROCHESTER*     FAIR      36  32  87 CALM      29.94F
WARSAW*        FAIR      34  30  86 CALM      29.93F
AUBURN*        FAIR      36  32  87 CALM      29.93S
FORT WAYNE     FAIR      35  31  85 NW5       29.93S WCI  31
HUNTINGTON*    FAIR      35  29  80 CALM      29.93S
PERU/GRISSOM   FAIR      35  33  92 W5        29.92F WCI  31
MARION*        FAIR      35  29  80 CALM      29.93F

$$
INZ028>050-260900-
CENTRAL INDIANA

CITY           SKY/WX    TMP DP  RH WIND       PRES   REMARKS
LAFAYETTE      FAIR      34  29  82 CALM      29.94F
KOKOMO*        FAIR      35  29  78 NW6       29.93F WCI  30
MUNCIE*        FAIR      38  29  70 NW5       29.92S
INDIANAPOLIS   MOCLDY    42  30  62 N10       29.92F

$$
MIZ043>046-050>051-056>058-064>065-071>073-077>080-260900-
SOUTHWEST LOWER MICHIGAN

CITY           SKY/WX    TMP DP  RH WIND       PRES   REMARKS
BATTLE CREEK   FAIR      36  32  85 CALM      29.93F
BENTON HARBOR  FAIR      31  29  92 CALM      29.95S
COLDWATER*     FAIR      36  34  94 CALM      29.93S
HILLSDALE*     FAIR      36  34  93 CALM      29.92S FOG
HOLLAND        FAIR      34  30  85 CALM      29.95S
GRAND RAPIDS   FAIR      36  30  79 CALM      29.94S
KALAMAZOO      FAIR      36  32  85 CALM      29.94F
STURGIS*       FAIR      37  34  88 NE3       29.92S
THREE RIVERS*  FAIR      38  32  77 CALM      29.94S

$$
OHZ001>008-015>018-024>025-260900-
NORTHWEST OHIO

CITY           SKY/WX    TMP DP  RH WIND       PRES   REMARKS
WAUSEON*       FAIR      39  39 100 CALM      29.93S FOG
DEFIANCE       FAIR      40  37  89 E6        29.94R
FINDLAY        FAIR      41  35  79 E6        29.91S
TOLEDO EXPRESS FAIR      39  39 100 E3        29.93F FOG
TOLEDO METCALF FAIR      39  37  92 CALM      29.94F
LIMA           CLOUDY    42  40  92 E7        29.92R

$$
AND FOR LAKE MICHIGAN COASTAL AND OPEN LAKE BUOY OBSERVATIONS

STATION/POSITION TEMP    WIND        PRES    VSBY  WAVE
                 AIR SEA DIR/SP/G                  HT/PER
                 (F)     (DEG/KT/KT) (MB)    (MI)  (FT/S)
CALUMET HARBOR    39     320/  3/  4 1014.1F
MICHIGAN CITY     38     330/  5/  6   N/A
BURNS HARBOR      40     350/  6/  8 1014.9F
SAINT JOSEPH      39      CALM  /  2 1014.6
4 MI NW BRIDGMAN  40 43  360/  4/  8 1015.1          2/ 6

$$
&&




USA.gov is the U.S. government's official web portal to all federal, state and local government web resources and services.